FLOCK 3R-7 (43742 NORAD) Tracking and Keplerian Element Data

This shows tracking and keplerian element data for the satellite.

Feedback or suggestion? Click here.




ElementValue
Catalog43742
NameFLOCK 3R-7
Epoch Orbit22000
Epoch Day308.224163
Epoch Year2022
RAAN37.3105
Inclination97.3424
Eccentricity0.0013057
Argument of Perigee255.9742
Mean Anonmoly162.5682
Mean Motion15.8056705
Decay Rate0.00968443
L11 43742U 18096Z 22308.22416300 .00968443 00000+0 45606-2 0 9993
L22 43742 97.3424 37.3105 0013057 255.9742 162.5682 15.80567050220001



Live tracking and technical data element details for FLOCK 3R-7 (NORAD 43742). FLOCK 3R-7 can be tracked NOW for your location showing map with azimuth and elevation plus other details from your city location.







IsCatalogInMostPopularTable: catalog: 43742, numindb: 388
Update: records affected: 1



GetName: 43742 FLOCK 3R-7

Hit Count: updated at: Fri, 16 May 2025 10:11:02 GMT